Time,TemperatureF,DewpointF,PressureIn,WindDirection,WindDirectionDegrees,WindSpeedMPH,WindSpeedGustMPH,Humidity,HourlyPrecipIn,Conditions,Clouds,dailyrainin,SoftwareType,DateUTC
2013-06-25 00:09:00,50.4,10.8,29.73,East,86,2.0,2.0,20,0.00,,,0.00,Wunderground v.1.15,2013-06-25 06:09:00,
2013-06-25 00:14:00,50.4,8.4,29.73,East,97,3.0,3.0,18,0.00,,,0.00,Wunderground v.1.15,2013-06-25 06:14:00,
2013-06-25 00:19:00,50.4,9.6,29.73,SSE,167,3.0,3.0,19,0.00,,,0.00,Wunderground v.1.15,2013-06-25 06:19:00,
2013-06-25 00:24:00,50.1,10.5,29.73,East,85,2.0,3.0,20,0.00,,,0.00,Wunderground v.1.15,2013-06-25 06:24:00,
2013-06-25 00:29:00,50.0,10.4,29.73,SE,139,2.0,2.0,20,0.00,,,0.00,Wunderground v.1.15,2013-06-25 06:29:00,
2013-06-25 00:39:00,49.5,11.1,29.74,East,101,1.0,1.0,21,0.00,,,0.00,Wunderground v.1.15,2013-06-25 06:39:00,
2013-06-25 00:44:00,49.2,9.8,29.74,ENE,66,1.0,1.0,20,0.00,,,0.00,Wunderground v.1.15,2013-06-25 06:44:00,
2013-06-25 00:49:00,48.7,11.5,29.74,SSE,165,1.0,1.0,22,0.00,,,0.00,Wunderground v.1.15,2013-06-25 06:49:00,
2013-06-25 00:54:00,48.2,11.1,29.74,SSE,165,0.0,1.0,22,0.00,,,0.00,Wunderground v.1.15,2013-06-25 06:54:00,
2013-06-25 00:59:00,47.8,10.7,29.74,SSW,211,0.0,0.0,22,0.00,,,0.00,Wunderground v.1.15,2013-06-25 06:59:00,
2013-06-25 01:09:00,47.3,12.3,29.74,East,80,0.0,0.0,24,0.00,,,0.00,Wunderground v.1.15,2013-06-25 07:09:00,
2013-06-25 01:14:00,46.9,11.0,29.74,South,179,0.0,0.0,23,0.00,,,0.00,Wunderground v.1.15,2013-06-25 07:14:00,
2013-06-25 01:19:00,46.7,10.8,29.74,ESE,110,0.0,0.0,23,0.00,,,0.00,Wunderground v.1.15,2013-06-25 07:19:00,
2013-06-25 01:24:00,46.3,11.4,29.74,SE,137,0.0,0.0,24,0.00,,,0.00,Wunderground v.1.15,2013-06-25 07:24:00,
2013-06-25 01:29:00,46.1,11.2,29.74,SSE,164,0.0,0.0,24,0.00,,,0.00,Wunderground v.1.15,2013-06-25 07:29:00,
2013-06-25 01:39:00,45.6,11.7,29.74,WSW,256,1.0,1.0,25,0.00,,,0.00,Wunderground v.1.15,2013-06-25 07:39:00,
2013-06-25 01:44:00,45.3,11.5,29.74,WSW,256,0.0,1.0,25,0.00,,,0.00,Wunderground v.1.15,2013-06-25 07:44:00,
2013-06-25 01:49:00,45.0,12.1,29.74,SW,221,0.0,0.0,26,0.00,,,0.00,Wunderground v.1.15,2013-06-25 07:49:00,
2013-06-25 01:54:00,44.6,12.6,29.74,SW,221,0.0,0.0,27,0.00,,,0.00,Wunderground v.1.15,2013-06-25 07:54:00,
2013-06-25 01:59:00,44.1,14.6,29.74,SW,221,0.0,0.0,30,0.00,,,0.00,Wunderground v.1.15,2013-06-25 07:59:00,
2013-06-25 02:09:00,43.3,13.9,29.74,SW,221,0.0,0.0,30,0.00,,,0.00,Wunderground v.1.15,2013-06-25 08:09:00,
2013-06-25 02:14:00,42.9,13.5,29.74,SW,221,0.0,0.0,30,0.00,,,0.00,Wunderground v.1.15,2013-06-25 08:14:00,
2013-06-25 02:19:00,42.7,14.1,29.74,SW,221,0.0,0.0,31,0.00,,,0.00,Wunderground v.1.15,2013-06-25 08:19:00,
2013-06-25 02:29:00,42.2,13.7,29.74,SSW,205,0.0,0.0,31,0.00,,,0.00,Wunderground v.1.15,2013-06-25 08:29:00,
2013-06-25 02:39:00,41.9,14.8,29.75,SSW,202,0.0,0.0,33,0.00,,,0.00,Wunderground v.1.15,2013-06-25 08:39:00,
2013-06-25 02:44:00,41.8,15.4,29.74,SSW,202,0.0,0.0,34,0.00,,,0.00,Wunderground v.1.15,2013-06-25 08:44:00,
2013-06-25 02:49:00,41.7,14.7,29.74,SSW,202,0.0,0.0,33,0.00,,,0.00,Wunderground v.1.15,2013-06-25 08:49:00,
2013-06-25 02:54:00,41.5,15.8,29.75,SSW,202,0.0,0.0,35,0.00,,,0.00,Wunderground v.1.15,2013-06-25 08:54:00,
2013-06-25 02:59:00,41.2,15.6,29.75,SSW,202,0.0,0.0,35,0.00,,,0.00,Wunderground v.1.15,2013-06-25 08:59:00,
2013-06-25 03:09:00,41.0,15.4,29.75,SE,138,0.0,0.0,35,0.00,,,0.00,Wunderground v.1.15,2013-06-25 09:09:00,
2013-06-25 03:14:00,40.9,16.0,29.75,SE,138,0.0,0.0,36,0.00,,,0.00,Wunderground v.1.15,2013-06-25 09:14:00,
2013-06-25 03:19:00,40.7,15.8,29.76,SE,138,0.0,0.0,36,0.00,,,0.00,Wunderground v.1.15,2013-06-25 09:19:00,
2013-06-25 03:29:00,40.3,16.1,29.76,SE,138,0.0,0.0,37,0.00,,,0.00,Wunderground v.1.15,2013-06-25 09:29:00,
2013-06-25 03:34:00,40.2,16.0,29.76,SE,138,0.0,0.0,37,0.00,,,0.00,Wunderground v.1.15,2013-06-25 09:34:00,
2013-06-25 03:39:00,40.0,17.0,29.77,SE,138,0.0,0.0,39,0.00,,,0.00,Wunderground v.1.15,2013-06-25 09:39:00,
2013-06-25 03:44:00,39.7,16.7,29.77,SE,138,0.0,0.0,39,0.00,,,0.00,Wunderground v.1.15,2013-06-25 09:44:00,
2013-06-25 03:54:00,39.5,16.6,29.77,SE,138,0.0,0.0,39,0.00,,,0.00,Wunderground v.1.15,2013-06-25 09:54:00,
2013-06-25 03:59:00,39.3,17.0,29.77,SE,138,0.0,0.0,40,0.00,,,0.00,Wunderground v.1.15,2013-06-25 09:59:00,
2013-06-25 04:09:00,38.9,17.2,29.77,SE,138,0.0,0.0,41,0.00,,,0.00,Wunderground v.1.15,2013-06-25 10:09:00,
2013-06-25 04:19:00,38.6,18.0,29.78,SE,138,0.0,0.0,43,0.00,,,0.00,Wunderground v.1.15,2013-06-25 10:19:00,
2013-06-25 04:24:00,38.5,17.9,29.78,SE,138,0.0,0.0,43,0.00,,,0.00,Wunderground v.1.15,2013-06-25 10:24:00,
2013-06-25 04:29:00,38.5,17.9,29.78,SE,138,0.0,0.0,43,0.00,,,0.00,Wunderground v.1.15,2013-06-25 10:29:00,
2013-06-25 04:39:00,38.3,18.3,29.78,SE,138,0.0,0.0,44,0.00,,,0.00,Wunderground v.1.15,2013-06-25 10:39:00,
2013-06-25 04:44:00,38.3,18.8,29.78,SE,138,0.0,0.0,45,0.00,,,0.00,Wunderground v.1.15,2013-06-25 10:44:00,
2013-06-25 04:54:00,38.3,18.8,29.78,SE,138,0.0,0.0,45,0.00,,,0.00,Wunderground v.1.15,2013-06-25 10:54:00,
2013-06-25 04:59:00,38.3,19.3,29.78,SE,138,0.0,0.0,46,0.00,,,0.00,Wunderground v.1.15,2013-06-25 10:59:00,
2013-06-25 05:09:00,38.2,19.7,29.79,SE,138,0.0,0.0,47,0.00,,,0.00,Wunderground v.1.15,2013-06-25 11:09:00,
2013-06-25 05:14:00,38.2,19.7,29.79,SE,138,0.0,0.0,47,0.00,,,0.00,Wunderground v.1.15,2013-06-25 11:14:00,
2013-06-25 05:19:00,38.1,19.1,29.79,SE,138,0.0,0.0,46,0.00,,,0.00,Wunderground v.1.15,2013-06-25 11:19:00,
2013-06-25 05:24:00,38.0,20.0,29.79,SE,138,0.0,0.0,48,0.00,,,0.00,Wunderground v.1.15,2013-06-25 11:24:00,
2013-06-25 05:29:00,38.1,20.6,29.79,SE,138,0.0,0.0,49,0.00,,,0.00,Wunderground v.1.15,2013-06-25 11:29:00,
2013-06-25 05:39:00,37.9,19.9,29.80,SE,138,0.0,0.0,48,0.00,,,0.00,Wunderground v.1.15,2013-06-25 11:39:00,
2013-06-25 05:44:00,38.0,20.0,29.80,SE,138,0.0,0.0,48,0.00,,,0.00,Wunderground v.1.15,2013-06-25 11:44:00,
2013-06-25 05:49:00,38.0,19.5,29.80,SE,138,0.0,0.0,47,0.00,,,0.00,Wunderground v.1.15,2013-06-25 11:49:00,
2013-06-25 05:54:00,38.0,20.0,29.80,SE,138,0.0,0.0,48,0.00,,,0.00,Wunderground v.1.15,2013-06-25 11:54:00,
2013-06-25 05:59:00,38.0,20.5,29.80,SE,138,0.0,0.0,49,0.00,,,0.00,Wunderground v.1.15,2013-06-25 11:59:00,
2013-06-25 06:09:00,38.0,20.5,29.80,SE,138,0.0,0.0,49,0.00,,,0.00,Wunderground v.1.15,2013-06-25 12:09:00,
2013-06-25 06:14:00,38.1,20.6,29.80,SE,138,0.0,0.0,49,0.00,,,0.00,Wunderground v.1.15,2013-06-25 12:14:00,
2013-06-25 06:24:00,38.1,20.6,29.80,SE,138,0.0,0.0,49,0.00,,,0.00,Wunderground v.1.15,2013-06-25 12:24:00,
2013-06-25 06:29:00,38.3,21.3,29.80,SE,138,0.0,0.0,50,0.00,,,0.00,Wunderground v.1.15,2013-06-25 12:29:00,
2013-06-25 06:39:00,38.5,21.5,29.80,SE,138,0.0,0.0,50,0.00,,,0.00,Wunderground v.1.15,2013-06-25 12:39:00,
2013-06-25 06:44:00,38.6,21.1,29.80,SE,138,0.0,0.0,49,0.00,,,0.00,Wunderground v.1.15,2013-06-25 12:44:00,
2013-06-25 06:49:00,38.7,21.2,29.80,SE,138,0.0,0.0,49,0.00,,,0.00,Wunderground v.1.15,2013-06-25 12:49:00,
2013-06-25 06:54:00,38.8,21.3,29.80,SE,138,0.0,0.0,49,0.00,,,0.00,Wunderground v.1.15,2013-06-25 12:54:00,
2013-06-25 06:59:00,38.7,22.1,29.80,SE,138,0.0,0.0,51,0.00,,,0.00,Wunderground v.1.15,2013-06-25 12:59:00,
2013-06-25 07:09:00,38.8,22.7,29.81,SE,138,0.0,0.0,52,0.00,,,0.00,Wunderground v.1.15,2013-06-25 13:09:00,
2013-06-25 07:19:00,38.7,22.6,29.80,SE,138,0.0,0.0,52,0.00,,,0.00,Wunderground v.1.15,2013-06-25 13:19:00,
2013-06-25 07:29:00,38.6,23.8,29.81,SE,138,0.0,0.0,55,0.00,,,0.00,Wunderground v.1.15,2013-06-25 13:29:00,
2013-06-25 07:34:00,38.6,23.4,29.80,SE,138,0.0,0.0,54,0.00,,,0.00,Wunderground v.1.15,2013-06-25 13:34:00,
2013-06-25 07:39:00,39.1,23.8,29.80,SE,138,0.0,0.0,54,0.00,,,0.00,Wunderground v.1.15,2013-06-25 13:39:00,
2013-06-25 07:49:00,46.0,19.8,29.80,NNW,331,2.0,3.0,35,0.00,,,0.00,Wunderground v.1.15,2013-06-25 13:49:00,
2013-06-25 07:54:00,51.5,18.6,29.80,NNW,344,5.0,6.0,27,0.00,,,0.00,Wunderground v.1.15,2013-06-25 13:54:00,
2013-06-25 07:59:00,54.4,18.3,29.80,NNW,332,6.0,6.0,24,0.00,,,0.00,Wunderground v.1.15,2013-06-25 13:59:00,
2013-06-25 08:09:00,58.3,18.5,29.80,NNW,337,5.0,10.0,21,0.00,,,0.00,Wunderground v.1.15,2013-06-25 14:09:00,
2013-06-25 08:14:00,59.4,18.3,29.80,North,355,6.0,10.0,20,0.00,,,0.00,Wunderground v.1.15,2013-06-25 14:14:00,
2013-06-25 08:19:00,60.2,17.7,29.80,NNW,342,7.0,13.0,19,0.00,,,0.00,Wunderground v.1.15,2013-06-25 14:19:00,
2013-06-25 08:24:00,60.8,17.0,29.80,NW,319,8.0,13.0,18,0.00,,,0.00,Wunderground v.1.15,2013-06-25 14:24:00,
2013-06-25 08:34:00,61.6,16.3,29.80,NNW,337,7.0,10.0,17,0.00,,,0.00,Wunderground v.1.15,2013-06-25 14:34:00,
2013-06-25 08:39:00,61.9,15.1,29.81,NNW,334,7.0,9.0,16,0.00,,,0.00,Wunderground v.1.15,2013-06-25 14:39:00,
2013-06-25 08:44:00,62.2,15.4,29.80,North,360,7.0,9.0,16,0.00,,,0.00,Wunderground v.1.15,2013-06-25 14:44:00,
2013-06-25 08:54:00,62.6,17.1,29.80,WNW,293,8.0,12.0,17,0.00,,,0.00,Wunderground v.1.15,2013-06-25 14:54:00,
2013-06-25 08:59:00,63.0,16.0,29.80,West,267,7.0,7.0,16,0.00,,,0.00,Wunderground v.1.15,2013-06-25 14:59:00,
2013-06-25 09:09:00,63.5,17.8,29.80,NW,318,9.0,9.0,17,0.00,,,0.00,Wunderground v.1.15,2013-06-25 15:09:00,
2013-06-25 09:14:00,63.7,19.3,29.80,NW,326,8.0,9.0,18,0.00,,,0.00,Wunderground v.1.15,2013-06-25 15:14:00,
2013-06-25 09:19:00,63.9,18.2,29.80,North,5,8.0,8.0,17,0.00,,,0.00,Wunderground v.1.15,2013-06-25 15:19:00,
2013-06-25 09:24:00,64.2,18.4,29.80,NW,319,9.0,9.0,17,0.00,,,0.00,Wunderground v.1.15,2013-06-25 15:24:00,
2013-06-25 09:29:00,64.3,18.5,29.80,NNW,331,9.0,9.0,17,0.00,,,0.00,Wunderground v.1.15,2013-06-25 15:29:00,
2013-06-25 09:39:00,65.0,19.1,29.80,NW,322,9.0,9.0,17,0.00,,,0.00,Wunderground v.1.15,2013-06-25 15:39:00,
2013-06-25 09:44:00,65.4,18.0,29.80,NNW,348,8.0,9.0,16,0.00,,,0.00,Wunderground v.1.15,2013-06-25 15:44:00,
2013-06-25 09:49:00,65.6,16.6,29.80,NW,326,7.0,13.0,15,0.00,,,0.00,Wunderground v.1.15,2013-06-25 15:49:00,
2013-06-25 09:54:00,65.6,16.6,29.80,NNW,346,9.0,13.0,15,0.00,,,0.00,Wunderground v.1.15,2013-06-25 15:54:00,
2013-06-25 09:59:00,65.8,16.8,29.80,NNW,328,9.0,11.0,15,0.00,,,0.00,Wunderground v.1.15,2013-06-25 15:59:00,
2013-06-25 10:09:00,66.4,17.3,29.80,NW,316,8.0,8.0,15,0.00,,,0.00,Wunderground v.1.15,2013-06-25 16:09:00,
2013-06-25 10:14:00,67.0,14.5,29.80,NW,323,8.0,8.0,13,0.00,,,0.00,Wunderground v.1.15,2013-06-25 16:14:00,
2013-06-25 10:24:00,66.8,14.3,29.81,NW,322,7.0,10.0,13,0.00,,,0.00,Wunderground v.1.15,2013-06-25 16:24:00,
2013-06-25 10:29:00,67.3,14.7,29.81,NNW,329,6.0,7.0,13,0.00,,,0.00,Wunderground v.1.15,2013-06-25 16:29:00,
2013-06-25 10:39:00,67.8,11.3,29.80,WNW,302,6.0,6.0,11,0.00,,,0.00,Wunderground v.1.15,2013-06-25 16:39:00,
2013-06-25 10:44:00,68.1,9.4,29.81,WNW,303,7.0,7.0,10,0.00,,,0.00,Wunderground v.1.15,2013-06-25 16:44:00,
2013-06-25 10:49:00,67.7,9.1,29.81,NNW,344,8.0,8.0,10,0.00,,,0.00,Wunderground v.1.15,2013-06-25 16:49:00,
2013-06-25 10:59:00,68.3,11.7,29.81,West,267,7.0,7.0,11,0.00,,,0.00,Wunderground v.1.15,2013-06-25 16:59:00,
2013-06-25 11:09:00,69.2,14.4,29.81,WNW,299,5.0,6.0,12,0.00,,,0.00,Wunderground v.1.15,2013-06-25 17:09:00,
2013-06-25 11:14:00,69.1,12.3,29.81,NNW,328,5.0,12.0,11,0.00,,,0.00,Wunderground v.1.15,2013-06-25 17:14:00,
2013-06-25 11:19:00,69.5,12.6,29.82,NW,323,6.0,6.0,11,0.00,,,0.00,Wunderground v.1.15,2013-06-25 17:19:00,
2013-06-25 11:24:00,69.3,14.4,29.81,West,275,5.0,6.0,12,0.00,,,0.00,Wunderground v.1.15,2013-06-25 17:24:00,
2013-06-25 11:29:00,69.4,14.5,29.81,NW,323,6.0,6.0,12,0.00,,,0.00,Wunderground v.1.15,2013-06-25 17:29:00,
2013-06-25 11:39:00,70.2,13.2,29.81,NNW,341,6.0,12.0,11,0.00,,,0.00,Wunderground v.1.15,2013-06-25 17:39:00,
2013-06-25 11:44:00,69.9,14.9,29.82,NNW,338,6.0,12.0,12,0.00,,,0.00,Wunderground v.1.15,2013-06-25 17:44:00,
2013-06-25 11:49:00,70.0,13.0,29.82,NE,51,6.0,6.0,11,0.00,,,0.00,Wunderground v.1.15,2013-06-25 17:49:00,
2013-06-25 11:59:00,70.9,11.5,29.82,NNW,327,4.0,11.0,10,0.00,,,0.00,Wunderground v.1.15,2013-06-25 17:59:00,
2013-06-25 12:09:00,70.4,15.3,29.81,North,349,6.0,6.0,12,0.00,,,0.00,Wunderground v.1.15,2013-06-25 18:09:00,
2013-06-25 12:19:00,71.6,16.2,29.81,NW,323,6.0,6.0,12,0.00,,,0.00,Wunderground v.1.15,2013-06-25 18:19:00,
2013-06-25 12:24:00,71.3,14.0,29.81,NNW,329,6.0,6.0,11,0.00,,,0.00,Wunderground v.1.15,2013-06-25 18:24:00,
2013-06-25 12:29:00,71.1,15.9,29.81,NW,312,7.0,12.0,12,0.00,,,0.00,Wunderground v.1.15,2013-06-25 18:29:00,
2013-06-25 12:39:00,71.5,18.0,29.81,NNW,327,6.0,8.0,13,0.00,,,0.00,Wunderground v.1.15,2013-06-25 18:39:00,
2013-06-25 12:44:00,72.2,16.7,29.81,NW,318,5.0,8.0,12,0.00,,,0.00,Wunderground v.1.15,2013-06-25 18:44:00,
2013-06-25 12:49:00,72.4,14.9,29.81,North,355,5.0,5.0,11,0.00,,,0.00,Wunderground v.1.15,2013-06-25 18:49:00,
2013-06-25 12:59:00,72.5,18.8,29.80,NNW,340,7.0,7.0,13,0.00,,,0.00,Wunderground v.1.15,2013-06-25 18:59:00,
2013-06-25 13:09:00,72.5,16.9,29.81,NNE,32,7.0,7.0,12,0.00,,,0.00,Wunderground v.1.15,2013-06-25 19:09:00,
2013-06-25 13:14:00,73.2,17.5,29.80,NNW,333,7.0,7.0,12,0.00,,,0.00,Wunderground v.1.15,2013-06-25 19:14:00,
2013-06-25 13:19:00,72.7,17.1,29.81,NNW,339,7.0,7.0,12,0.00,,,0.00,Wunderground v.1.15,2013-06-25 19:19:00,
2013-06-25 13:29:00,73.3,17.6,29.80,WSW,253,7.0,7.0,12,0.00,,,0.00,Wunderground v.1.15,2013-06-25 19:29:00,
2013-06-25 13:39:00,74.0,16.1,29.81,NNW,335,7.0,7.0,11,0.00,,,0.00,Wunderground v.1.15,2013-06-25 19:39:00,
2013-06-25 13:44:00,73.3,19.4,29.79,NW,319,6.0,7.0,13,0.00,,,0.00,Wunderground v.1.15,2013-06-25 19:44:00,
2013-06-25 13:54:00,74.6,18.6,29.79,NNW,328,6.0,7.0,12,0.00,,,0.00,Wunderground v.1.15,2013-06-25 19:54:00,
2013-06-25 13:59:00,75.5,17.3,29.79,North,355,4.0,4.0,11,0.00,,,0.00,Wunderground v.1.15,2013-06-25 19:59:00,
2013-06-25 14:09:00,75.1,19.0,29.79,WNW,301,5.0,5.0,12,0.00,,,0.00,Wunderground v.1.15,2013-06-25 20:09:00,
2013-06-25 14:14:00,75.5,15.1,29.79,NNW,336,5.0,6.0,10,0.00,,,0.00,Wunderground v.1.15,2013-06-25 20:14:00,
2013-06-25 14:19:00,75.1,19.0,29.79,NW,315,5.0,6.0,12,0.00,,,0.00,Wunderground v.1.15,2013-06-25 20:19:00,
2013-06-25 14:24:00,75.7,19.4,29.79,NW,321,5.0,6.0,12,0.00,,,0.00,Wunderground v.1.15,2013-06-25 20:24:00,
2013-06-25 14:29:00,75.6,17.3,29.79,NW,322,4.0,7.0,11,0.00,,,0.00,Wunderground v.1.15,2013-06-25 20:29:00,
2013-06-25 14:39:00,74.5,16.5,29.78,NE,53,6.0,6.0,11,0.00,,,0.00,Wunderground v.1.15,2013-06-25 20:39:00,
2013-06-25 14:49:00,76.2,17.8,29.78,North,355,5.0,5.0,11,0.00,,,0.00,Wunderground v.1.15,2013-06-25 20:49:00,
2013-06-25 14:54:00,75.8,17.5,29.78,WNW,291,6.0,6.0,11,0.00,,,0.00,Wunderground v.1.15,2013-06-25 20:54:00,
2013-06-25 14:59:00,74.9,16.8,29.78,West,265,6.0,6.0,11,0.00,,,0.00,Wunderground v.1.15,2013-06-25 20:59:00,
2013-06-25 15:09:00,74.7,20.5,29.78,North,9,5.0,5.0,13,0.00,,,0.00,Wunderground v.1.15,2013-06-25 21:09:00,
2013-06-25 15:19:00,75.5,19.3,29.78,NNW,348,5.0,5.0,12,0.00,,,0.00,Wunderground v.1.15,2013-06-25 21:19:00,
2013-06-25 15:24:00,75.4,19.2,29.78,WSW,254,5.0,5.0,12,0.00,,,0.00,Wunderground v.1.15,2013-06-25 21:24:00,
2013-06-25 15:29:00,76.3,19.9,29.77,NW,308,5.0,5.0,12,0.00,,,0.00,Wunderground v.1.15,2013-06-25 21:29:00,
2013-06-25 15:39:00,77.1,18.5,29.77,NW,315,5.0,6.0,11,0.00,,,0.00,Wunderground v.1.15,2013-06-25 21:39:00,
2013-06-25 15:44:00,77.0,20.5,29.77,North,355,7.0,7.0,12,0.00,,,0.00,Wunderground v.1.15,2013-06-25 21:44:00,
2013-06-25 15:49:00,77.3,18.7,29.77,North,355,7.0,7.0,11,0.00,,,0.00,Wunderground v.1.15,2013-06-25 21:49:00,
2013-06-25 15:54:00,77.7,21.0,29.77,North,355,5.0,8.0,12,0.00,,,0.00,Wunderground v.1.15,2013-06-25 21:54:00,
2013-06-25 15:59:00,78.2,19.3,29.77,NE,45,6.0,6.0,11,0.00,,,0.00,Wunderground v.1.15,2013-06-25 21:59:00,
2013-06-25 16:09:00,78.0,21.2,29.76,NW,306,5.0,8.0,12,0.00,,,0.00,Wunderground v.1.15,2013-06-25 22:09:00,
2013-06-25 16:14:00,78.4,19.5,29.76,NW,319,6.0,9.0,11,0.00,,,0.00,Wunderground v.1.15,2013-06-25 22:14:00,
2013-06-25 16:24:00,78.2,19.3,29.76,North,349,7.0,12.0,11,0.00,,,0.00,Wunderground v.1.15,2013-06-25 22:24:00,
2013-06-25 16:29:00,78.5,21.6,29.76,WNW,302,6.0,7.0,12,0.00,,,0.00,Wunderground v.1.15,2013-06-25 22:29:00,
2013-06-25 16:39:00,77.9,21.2,29.75,North,355,8.0,8.0,12,0.00,,,0.00,Wunderground v.1.15,2013-06-25 22:39:00,
2013-06-25 16:44:00,78.4,21.5,29.76,NW,323,7.0,8.0,12,0.00,,,0.00,Wunderground v.1.15,2013-06-25 22:44:00,
2013-06-25 16:54:00,78.4,21.5,29.74,NNW,336,6.0,9.0,12,0.00,,,0.00,Wunderground v.1.15,2013-06-25 22:54:00,
2013-06-25 16:59:00,78.4,21.5,29.75,NNW,330,6.0,6.0,12,0.00,,,0.00,Wunderground v.1.15,2013-06-25 22:59:00,
2013-06-25 17:09:00,78.7,21.8,29.75,NW,320,6.0,6.0,12,0.00,,,0.00,Wunderground v.1.15,2013-06-25 23:09:00,
2013-06-25 17:14:00,78.5,21.6,29.75,NNW,329,6.0,7.0,12,0.00,,,0.00,Wunderground v.1.15,2013-06-25 23:14:00,
2013-06-25 17:19:00,78.0,23.1,29.74,West,279,6.0,8.0,13,0.00,,,0.00,Wunderground v.1.15,2013-06-25 23:19:00,
2013-06-25 17:24:00,78.0,23.1,29.75,NNW,337,6.0,8.0,13,0.00,,,0.00,Wunderground v.1.15,2013-06-25 23:24:00,
2013-06-25 17:34:00,77.9,23.1,29.75,WNW,287,6.0,9.0,13,0.00,,,0.00,Wunderground v.1.15,2013-06-25 23:34:00,
2013-06-25 17:39:00,78.2,23.3,29.74,NNW,330,6.0,8.0,13,0.00,,,0.00,Wunderground v.1.15,2013-06-25 23:39:00,
2013-06-25 17:49:00,78.4,23.5,29.74,NNW,338,5.0,7.0,13,0.00,,,0.00,Wunderground v.1.15,2013-06-25 23:49:00,
2013-06-25 17:59:00,77.4,22.7,29.75,NNW,346,7.0,7.0,13,0.00,,,0.00,Wunderground v.1.15,2013-06-25 23:59:00,
2013-06-25 18:09:00,78.1,23.2,29.74,NW,319,4.0,7.0,13,0.00,,,0.00,Wunderground v.1.15,2013-06-26 00:09:00,
2013-06-25 18:14:00,77.8,23.0,29.75,NW,326,6.0,7.0,13,0.00,,,0.00,Wunderground v.1.15,2013-06-26 00:14:00,
2013-06-25 18:19:00,77.9,23.1,29.75,NNE,22,6.0,6.0,13,0.00,,,0.00,Wunderground v.1.15,2013-06-26 00:19:00,
2013-06-25 18:29:00,78.2,23.3,29.74,NNW,336,4.0,6.0,13,0.00,,,0.00,Wunderground v.1.15,2013-06-26 00:29:00,
2013-06-25 18:39:00,78.0,23.1,29.75,North,5,6.0,6.0,13,0.00,,,0.00,Wunderground v.1.15,2013-06-26 00:39:00,
2013-06-25 18:44:00,77.8,23.0,29.75,NW,325,5.0,6.0,13,0.00,,,0.00,Wunderground v.1.15,2013-06-26 00:44:00,
2013-06-25 18:49:00,77.6,22.8,29.75,NNW,339,4.0,8.0,13,0.00,,,0.00,Wunderground v.1.15,2013-06-26 00:49:00,
2013-06-25 18:59:00,77.4,22.7,29.75,NNW,342,5.0,5.0,13,0.00,,,0.00,Wunderground v.1.15,2013-06-26 00:59:00,
2013-06-25 19:09:00,77.0,22.4,29.75,WNW,302,5.0,5.0,13,0.00,,,0.00,Wunderground v.1.15,2013-06-26 01:09:00,
2013-06-25 19:14:00,76.9,22.3,29.75,NW,325,5.0,6.0,13,0.00,,,0.00,Wunderground v.1.15,2013-06-26 01:14:00,
2013-06-25 19:19:00,76.6,23.8,29.75,NW,326,5.0,5.0,14,0.00,,,0.00,Wunderground v.1.15,2013-06-26 01:19:00,
2013-06-25 19:24:00,76.0,23.3,29.75,North,5,4.0,5.0,14,0.00,,,0.00,Wunderground v.1.15,2013-06-26 01:24:00,
2013-06-25 19:29:00,75.9,23.2,29.75,NW,326,3.0,3.0,14,0.00,,,0.00,Wunderground v.1.15,2013-06-26 01:29:00,
2013-06-25 19:39:00,75.6,23.0,29.75,NW,306,5.0,5.0,14,0.00,,,0.00,Wunderground v.1.15,2013-06-26 01:39:00,
2013-06-25 19:44:00,75.3,24.4,29.75,NW,325,4.0,5.0,15,0.00,,,0.00,Wunderground v.1.15,2013-06-26 01:44:00,
2013-06-25 19:49:00,74.9,24.1,29.75,NW,323,3.0,3.0,15,0.00,,,0.00,Wunderground v.1.15,2013-06-26 01:49:00,
2013-06-25 19:59:00,74.5,23.8,29.76,NW,320,3.0,3.0,15,0.00,,,0.00,Wunderground v.1.15,2013-06-26 01:59:00,
2013-06-25 20:09:00,73.5,24.5,29.76,NW,319,2.0,2.0,16,0.00,,,0.00,Wunderground v.1.15,2013-06-26 02:09:00,
2013-06-25 20:14:00,73.0,24.1,29.76,NW,324,2.0,5.0,16,0.00,,,0.00,Wunderground v.1.15,2013-06-26 02:14:00,
2013-06-25 20:24:00,71.4,25.7,29.76,NNW,328,1.0,2.0,18,0.00,,,0.00,Wunderground v.1.15,2013-06-26 02:24:00,
2013-06-25 20:29:00,70.8,23.8,29.76,NNW,336,1.0,3.0,17,0.00,,,0.00,Wunderground v.1.15,2013-06-26 02:29:00,
2013-06-25 20:39:00,69.8,25.6,29.76,WNW,290,1.0,1.0,19,0.00,,,0.00,Wunderground v.1.15,2013-06-26 02:39:00,
2013-06-25 20:44:00,69.2,25.1,29.76,WNW,290,0.0,1.0,19,0.00,,,0.00,Wunderground v.1.15,2013-06-26 02:44:00,
2013-06-25 20:49:00,68.5,24.6,29.76,WNW,290,0.0,1.0,19,0.00,,,0.00,Wunderground v.1.15,2013-06-26 02:49:00,
2013-06-25 20:54:00,68.1,25.5,29.77,WNW,291,0.0,1.0,20,0.00,,,0.00,Wunderground v.1.15,2013-06-26 02:54:00,
2013-06-25 20:59:00,66.5,27.5,29.77,WNW,290,0.0,0.0,23,0.00,,,0.00,Wunderground v.1.15,2013-06-26 02:59:00,
2013-06-25 21:09:00,64.0,27.4,29.77,WNW,290,0.0,0.0,25,0.00,,,0.00,Wunderground v.1.15,2013-06-26 03:09:00,
2013-06-25 21:14:00,63.0,28.5,29.77,WNW,290,0.0,0.0,27,0.00,,,0.00,Wunderground v.1.15,2013-06-26 03:14:00,
2013-06-25 21:19:00,61.9,30.1,29.78,WNW,290,0.0,0.0,30,0.00,,,0.00,Wunderground v.1.15,2013-06-26 03:19:00,
2013-06-25 21:24:00,61.2,26.9,29.78,WNW,290,0.0,0.0,27,0.00,,,0.00,Wunderground v.1.15,2013-06-26 03:24:00,
2013-06-25 21:34:00,60.0,27.6,29.78,WNW,290,0.0,0.0,29,0.00,,,0.00,Wunderground v.1.15,2013-06-26 03:34:00,
2013-06-25 21:39:00,59.6,29.7,29.79,WNW,290,0.0,0.0,32,0.00,,,0.00,Wunderground v.1.15,2013-06-26 03:39:00,
2013-06-25 21:44:00,59.1,26.8,29.79,WNW,290,0.0,0.0,29,0.00,,,0.00,Wunderground v.1.15,2013-06-26 03:44:00,
2013-06-25 21:49:00,58.6,28.0,29.79,WNW,290,0.0,0.0,31,0.00,,,0.00,Wunderground v.1.15,2013-06-26 03:49:00,
2013-06-25 21:54:00,58.0,26.7,29.80,WNW,291,0.0,0.0,30,0.00,,,0.00,Wunderground v.1.15,2013-06-26 03:54:00,
2013-06-25 21:59:00,57.7,29.5,29.80,WNW,290,0.0,0.0,34,0.00,,,0.00,Wunderground v.1.15,2013-06-26 03:59:00,
2013-06-25 22:04:00,57.2,29.1,29.81,WNW,290,0.0,0.0,34,0.00,,,0.00,Wunderground v.1.15,2013-06-26 04:04:00,
2013-06-25 22:09:00,56.9,28.1,29.81,WNW,291,0.0,0.0,33,0.00,,,0.00,Wunderground v.1.15,2013-06-26 04:09:00,
2013-06-25 22:14:00,56.3,28.3,29.81,WNW,291,0.0,0.0,34,0.00,,,0.00,Wunderground v.1.15,2013-06-26 04:14:00,
2013-06-25 22:19:00,56.0,26.5,29.81,WNW,290,0.0,0.0,32,0.00,,,0.00,Wunderground v.1.15,2013-06-26 04:19:00,
2013-06-25 22:24:00,55.6,28.4,29.81,WNW,290,0.0,0.0,35,0.00,,,0.00,Wunderground v.1.15,2013-06-26 04:24:00,
2013-06-25 22:29:00,55.3,27.4,29.82,WNW,290,0.0,0.0,34,0.00,,,0.00,Wunderground v.1.15,2013-06-26 04:29:00,
2013-06-25 22:34:00,55.0,29.2,29.82,WNW,290,0.0,0.0,37,0.00,,,0.00,Wunderground v.1.15,2013-06-26 04:34:00,
2013-06-25 22:39:00,54.7,27.6,29.81,WNW,291,0.0,0.0,35,0.00,,,0.00,Wunderground v.1.15,2013-06-26 04:39:00,
2013-06-25 22:44:00,54.4,27.3,29.82,WNW,291,0.0,0.0,35,0.00,,,0.00,Wunderground v.1.15,2013-06-26 04:44:00,
2013-06-25 22:49:00,54.0,28.9,29.82,WNW,291,0.0,0.0,38,0.00,,,0.00,Wunderground v.1.15,2013-06-26 04:49:00,
2013-06-25 22:59:00,53.6,27.9,29.82,WNW,290,0.0,0.0,37,0.00,,,0.00,Wunderground v.1.15,2013-06-26 04:59:00,
2013-06-25 23:09:00,52.9,29.2,29.82,WNW,291,0.0,0.0,40,0.00,,,0.00,Wunderground v.1.15,2013-06-26 05:09:00,
2013-06-25 23:14:00,52.6,27.7,29.82,WNW,291,0.0,0.0,38,0.00,,,0.00,Wunderground v.1.15,2013-06-26 05:14:00,
2013-06-25 23:19:00,52.4,29.4,29.82,WNW,291,0.0,0.0,41,0.00,,,0.00,Wunderground v.1.15,2013-06-26 05:19:00,
2013-06-25 23:24:00,52.2,28.0,29.82,WNW,291,0.0,0.0,39,0.00,,,0.00,Wunderground v.1.15,2013-06-26 05:24:00,
2013-06-25 23:29:00,51.9,28.3,29.82,WNW,291,0.0,0.0,40,0.00,,,0.00,Wunderground v.1.15,2013-06-26 05:29:00,
2013-06-25 23:39:00,51.5,28.6,29.82,WNW,291,0.0,0.0,41,0.00,,,0.00,Wunderground v.1.15,2013-06-26 05:39:00,
2013-06-25 23:44:00,51.1,29.4,29.82,WNW,291,0.0,0.0,43,0.00,,,0.00,Wunderground v.1.15,2013-06-26 05:44:00,
2013-06-25 23:49:00,50.8,28.5,29.82,WNW,290,0.0,0.0,42,0.00,,,0.00,Wunderground v.1.15,2013-06-26 05:49:00,
2013-06-25 23:59:00,50.5,29.4,29.82,WNW,291,0.0,0.0,44,0.00,,,0.00,Wunderground v.1.15,2013-06-26 05:59:00,